Regional Weather Roundup
Issued by NWS

Home | Current Version | Previous Version | Graphics & Text | Print | Product List | Glossary On
Versions: 1 2 3 4 5 6 7 8 9 10 11 12 13 14 15 16 17 18 19 20 21 22 23 24 25 26 27 28 29 30 31 32 33 34 35 36 37 38 39 40 41 42 43 44 45 46 47 48 49 50
906
ASUS43 KDMX 190906
RWRIA

WEATHER ROUNDUP FOR IOWA
NATIONAL WEATHER SERVICE DES MOINES IA
400 AM CDT SAT AUG 19 2017

NOTE: "FAIR" INDICATES FEW OR NO CLOUDS BELOW 12,000 FEET WITH NO
SIGNIFICANT WEATHER AND/OR OBSTRUCTIONS TO VISIBILITY.

* - THESE STATIONS ARE NOT NWS STATIONS...THUS NOT UNDER NWS
QUALITY CONTROL.  THEY ALSO DO NOT REPORT WEATHER SUCH
AS PRECIPITATION OR FOG.

IAZ001>003-012>014-020>022-031>034-043>046-191000-
   NORTHWEST IOWA

CITY           SKY/WX    TMP DP  RH WIND       PRES   REMARKS
CARROLL *      CLEAR     61  61 100 N3        29.93R
CHEROKEE *     CLEAR     59  59 100 N3        29.94S
DENISON *      CLOUDY    61  59  94 NW3       29.96R
LE MARS *      CLEAR     57  57 100 CALM      29.94R
ORANGE CITY *  CLEAR     61  61 100 N3        29.93S
SHELDON *      CLEAR     55  55 100 NE5       29.92F FOG
SIOUX CITY     CLEAR     58  58 100 W3        29.95S
SPENCER        FOG       54  54 100 NW3       29.95R VSB 1
STORM LAKE *   CLEAR     57  55  94 SW7       29.95R FOG
$$

IAZ055>058-069>071-079>083-090>094-191000-
   SOUTHWEST IOWA

CITY           SKY/WX    TMP DP  RH WIND       PRES   REMARKS
ATLANTIC *     CLOUDY    64  61  88 CALM      29.93S
AUDUBON *      CLEAR     63  61  94 W5        29.95R
CLARINDA *     FOG       61  61 100 CALM      29.95S VSB<1/4
COUNCIL BLFS * MOCLDY    63  63 100 CALM      29.95R
CRESTON *      CLEAR     64  63  94 W5        29.94R
HARLAN  *      CLEAR     61  61 100 CALM      29.97S
LAMONI         CLEAR     67  63  87 W5        29.92S
RED OAK *      PTCLDY    61  61 100 CALM      29.94R
SHENANDOAH *   CLEAR     63  63 100 CALM      29.94R
$$

IAZ047>049-059>061-072>074-084-191000-
   CENTRAL IOWA

CITY           SKY/WX    TMP DP  RH WIND       PRES   REMARKS
AMES           PTCLDY    62  62 100 CALM      29.92S
ANKENY *       CLEAR     63  61  94 CALM      29.92S
BOONE *        MOCLDY    63  61  94 E8        29.92S
CHARITON *     PTCLDY    66  64  94 NE8G17    29.93R
DES MOINES     PTCLDY    67  62  84 SE8       29.91S
GRINNELL*      CLOUDY    64  60  89 SE7       29.93S
KNOXVILLE *    MOCLDY    66  63  88 E7        29.91S
MARSHALLTOWN   PTCLDY    60  60 100 CALM      29.91F
NEWTON *       CLOUDY    63  61  94 SE7       29.92F
PELLA *        CLOUDY    66  60  81 E3        29.93S
PERRY *          N/A     65  64  96 E3        29.91F
$$

IAZ004>006-015-016-023>025-035-036-191000-
   NORTH CENTRAL IOWA

CITY           SKY/WX    TMP DP  RH WIND       PRES   REMARKS
ALGONA *       CLEAR     57  57 100 N3        29.94R FOG
CLARION *      MOCLDY    61  61 100 N3        29.93S
ESTHERVILLE    FOG       53  53 100 CALM      29.93F VSB 3/4
FORT DODGE *   CLOUDY    61  57  88 CALM      29.94R
MASON CITY     CLEAR     55  54  96 E5        29.94F FOG
FOREST CITY *  FOG       55  55 100 CALM      29.94R VSB 3/4
WEBSTER CITY * CLOUDY    63  61  94 CALM      29.92R
IOWA FALLS *     N/A     61  60  95 CALM      29.94S
$$

IAZ007>011-017>019-026>030-037>042-050>054-066-191000-
   NORTHEAST IOWA

CITY           SKY/WX    TMP DP  RH WIND       PRES   REMARKS
CEDAR RAPIDS     N/A     61  61 100 CALM      29.92F
CHARLES CITY * CLEAR     55  55 100 N6        29.95R FOG
CLINTON *      PTCLDY    57  57 100 N8        29.93S
DECORAH *      CLEAR     55  55 100 CALM      29.93S FOG
DUBUQUE        CLOUDY    56  55  97 W5        29.95R FOG
MONTICELLO *   PTCLDY    57  57 100 E5        29.94F FOG
OELWEIN *      CLOUDY    59  59 100 CALM      29.94S
WATERLOO       CLOUDY    62  59  90 N3        29.92R
$$

IAZ064-065-067-068-078-191000-
   EAST CENTRAL IOWA

CITY           SKY/WX    TMP DP  RH WIND       PRES   REMARKS
DAVENPORT      CLOUDY    61  59  93 NW7       29.95R
IOWA CITY        N/A     67  61  81 NE5       29.93F
MT. PLEASANT * PTCLDY    64  64  98 E7        29.92S
MUSCATINE *    DRIZZLE   66  63  88 NE13      29.91F
QUAD CITIES    MOCLDY    66  62  87 CALM      29.92R
$$

IAZ062-063-075>077-085>089-095>099-191000-
   SOUTHEAST IOWA

CITY           SKY/WX    TMP DP  RH WIND       PRES   REMARKS
BURLINGTON     PTCLDY    67  64  90 NE7       29.91S
FAIRFIELD *    CLOUDY    66  61  82 E7        29.91F
FORT MADISON * PTCLDY    66  64  94 NE3       29.92S
KEOKUK *       PTCLDY    64  64 100 CALM      29.90S
OSKALOOSA *      N/A     65  62  90 CALM      29.92S
CENTERVILLE *    N/A     61  61 100 CALM      29.94R FOG
OTTUMWA        CLOUDY    66  62  87 E7        29.92S
WASHINGTON *   CLOUDY    64  63  94 E5        29.92S
$$

ABBREVIATIONS USED IN REMARKS
   TC - TEMPERATURES IN CELSIUS
  WCI - WIND CHILL INDEX
   HX - HEAT INDEX
  VSB - VISIBILITY
$$





USA.gov is the U.S. government's official web portal to all federal, state and local government web resources and services.